Arlington, WA

5:54 AM PDT on September 24, 2017 (GMT -0700)
Arlington Municipal

Weather History for KAWO - December, 2012

Change the Weather History Date:

Tuesday, December 4, 2012

  Actual Average Record
Temperature  
Mean Temperature 48 °F -  
Max Temperature 53 °F 42 °F 57 °F (2007)
Min Temperature 44 °F 34 °F 19 °F (2013)
Degree Days  
Heating Degree Days 16    
Moisture  
Dew Point 42 °F    
Average Humidity 78    
Maximum Humidity 93    
Minimum Humidity 62    
Precipitation  
Precipitation 0.05 in - - ()
Sea Level Pressure  
Sea Level Pressure 29.67 in    
Wind  
Wind Speed 15 mph (SSE)    
Max Wind Speed 28 mph    
Max Gust Speed 36 mph    
Visibility 10 miles    
Events      
Averages and records for this station are not official NWS values.
T = Trace of Precipitation, MM = Missing Value Source: NWS Daily Summary

Daily Weather History Graph

Daily Weather History Graph

Search for Another Location

Airport or City:

Trip Planner

Search our weather history database for the weather conditions in past years. The results will help you decide how hot, cold, wet, or windy it might be!

Date:

Astronomy

Dec. 04, 2012 Rise Set
Actual Time 7:42 AM PST 4:15 PM PST
Civil Twilight 7:06 AM PST 4:51 PM PST
Nautical Twilight 6:27 AM PST 5:30 PM PST
Astronomical Twilight 5:49 AM PST 6:08 PM PST
Moon 10:27 PM PST (12/4) 11:22 AM PST (12/4)
Length of Visible Light 9h 45m
Length of Day
8h 33m
Waning Gibbous, 68% of the Moon is Illuminated
Dec 4
Waning Gibbous
Dec 6
Last Quarter
Dec 13
New
Dec 19
First Quarter
Dec 28
Full

Hourly Weather History & Observations

Time (PST) Temp. Windchill Dew Point Humidity Pressure Visibility Wind Dir Wind Speed Gust Speed Precip Events Conditions
12:15 AM 46.4 °F 44.3 °F 41.0 °F 81% 29.63 in 10.0 mi South 4.6 mph - N/A   Overcast
12:55 AM 44.6 °F 40.2 °F 41.0 °F 87% 29.63 in 10.0 mi South 8.1 mph - N/A   Overcast
1:15 AM 46.4 °F 42.4 °F 41.0 °F 81% 29.62 in 10.0 mi SE 8.1 mph - 0.01 in   Overcast
1:35 AM 46.4 °F 42.4 °F 42.8 °F 87% 29.59 in 10.0 mi ESE 8.1 mph - 0.01 in   Overcast
1:55 AM 46.4 °F 41.9 °F 42.8 °F 87% 29.56 in 10.0 mi SE 9.2 mph - 0.01 in   Overcast
2:15 AM 46.4 °F 41.5 °F 42.8 °F 87% 29.55 in 10.0 mi SSE 10.4 mph - 0.03 in   Overcast
2:35 AM 46.4 °F 42.9 °F 42.8 °F 87% 29.56 in 10.0 mi SE 6.9 mph - 0.04 in   Overcast
2:55 AM 46.4 °F 42.4 °F 42.8 °F 87% 29.54 in 10.0 mi ESE 8.1 mph - 0.04 in   Overcast
3:15 AM 46.4 °F 41.9 °F 42.8 °F 87% 29.54 in 10.0 mi SSE 9.2 mph - N/A   Overcast
3:35 AM 46.4 °F 43.5 °F 42.8 °F 87% 29.54 in 10.0 mi SE 5.8 mph - N/A   Overcast
4:15 AM 48.2 °F - 42.8 °F 82% 29.54 in 10.0 mi ESE 18.4 mph 26.5 mph N/A   Overcast
4:35 AM 48.2 °F - 44.6 °F 87% 29.56 in 10.0 mi SE 13.8 mph 21.9 mph N/A   Overcast
4:55 AM 48.2 °F - 44.6 °F 87% 29.56 in 7.0 mi ESE 17.3 mph 26.5 mph N/A   Overcast
5:15 AM 48.2 °F - 44.6 °F 87% 29.58 in 7.0 mi SSE 15.0 mph 24.2 mph N/A   Overcast
5:35 AM 48.2 °F - 44.6 °F 87% 29.57 in 10.0 mi SE 18.4 mph 25.3 mph N/A   Overcast
5:55 AM 48.2 °F - 46.4 °F 93% 29.57 in 10.0 mi SE 19.6 mph 24.2 mph N/A   Overcast
6:15 AM 50.0 °F - 46.4 °F 87% 29.58 in 10.0 mi SE 21.9 mph 29.9 mph N/A   Overcast
6:35 AM 51.8 °F - 46.4 °F 82% 29.58 in 10.0 mi SSE 20.7 mph 28.8 mph N/A   Overcast
6:55 AM 51.8 °F - 46.4 °F 82% 29.59 in 10.0 mi SSE 25.3 mph 33.4 mph N/A   Overcast
7:15 AM 51.8 °F - 46.4 °F 82% 29.60 in 10.0 mi SSE 27.6 mph 33.4 mph N/A   Overcast
7:35 AM 51.8 °F - 48.2 °F 88% 29.61 in 10.0 mi South 21.9 mph 31.1 mph N/A   Overcast
7:55 AM 53.6 °F - 48.2 °F 82% 29.61 in 10.0 mi South 24.2 mph 35.7 mph N/A   Overcast
8:15 AM 51.8 °F - 46.4 °F 82% 29.62 in 10.0 mi SSE 24.2 mph 33.4 mph N/A   Mostly Cloudy
8:35 AM 51.8 °F - 46.4 °F 82% 29.64 in 10.0 mi South 21.9 mph 29.9 mph N/A   Mostly Cloudy
8:55 AM 51.8 °F - 46.4 °F 82% 29.66 in 10.0 mi South 20.7 mph 25.3 mph N/A   Mostly Cloudy
9:15 AM 51.8 °F - 44.6 °F 76% 29.67 in 10.0 mi South 16.1 mph 25.3 mph N/A   Partly Cloudy
9:35 AM 51.8 °F - 44.6 °F 76% 29.68 in 10.0 mi South 20.7 mph 25.3 mph N/A   Clear
10:15 AM 51.8 °F - 42.8 °F 71% 29.70 in 10.0 mi SSE 23.0 mph 31.1 mph N/A   Clear
10:35 AM 53.6 °F - 42.8 °F 67% 29.71 in 10.0 mi SSE 26.5 mph 32.2 mph N/A   Clear
10:55 AM 53.6 °F - 41.0 °F 62% 29.72 in 10.0 mi South 25.3 mph 33.4 mph N/A   Clear
11:15 AM 51.8 °F - 39.2 °F 62% 29.73 in 10.0 mi South 24.2 mph 31.1 mph N/A   Clear
11:35 AM 51.8 °F - 41.0 °F 67% 29.74 in 10.0 mi South 20.7 mph 33.4 mph N/A   Clear
11:55 AM 51.8 °F - 41.0 °F 67% 29.75 in 10.0 mi South 23.0 mph 34.5 mph N/A   Mostly Cloudy
12:15 PM 51.8 °F - 41.0 °F 67% 29.74 in 10.0 mi SSE 23.0 mph 26.5 mph N/A   Overcast
12:35 PM 51.8 °F - 39.2 °F 62% 29.73 in 10.0 mi SSE 18.4 mph 33.4 mph N/A   Overcast
12:55 PM 51.8 °F - 41.0 °F 67% 29.72 in 10.0 mi SE 21.9 mph 29.9 mph N/A   Mostly Cloudy
1:15 PM 51.8 °F - 41.0 °F 67% 29.73 in 10.0 mi SSE 18.4 mph 27.6 mph N/A   Mostly Cloudy
1:35 PM 51.8 °F - 41.0 °F 67% 29.73 in 10.0 mi SSE 17.3 mph 25.3 mph N/A   Overcast
1:55 PM 51.8 °F - 42.8 °F 71% 29.73 in 10.0 mi South 21.9 mph 27.6 mph N/A   Overcast
2:15 PM 51.8 °F - 42.8 °F 71% 29.71 in 10.0 mi SSE 17.3 mph - N/A   Overcast
2:35 PM 51.8 °F - 42.8 °F 71% 29.71 in 10.0 mi SE 18.4 mph - N/A   Overcast
2:55 PM 51.8 °F - 42.8 °F 71% 29.72 in 10.0 mi SSE 20.7 mph 26.5 mph N/A   Overcast
3:15 PM 48.2 °F - 42.8 °F 82% 29.72 in 10.0 mi SSE 21.9 mph - N/A   Overcast
3:35 PM 48.2 °F - 42.8 °F 82% 29.73 in 10.0 mi SSE 17.3 mph 23.0 mph N/A   Overcast
3:55 PM 48.2 °F - 42.8 °F 82% 29.72 in 10.0 mi SE 20.7 mph 25.3 mph N/A   Overcast
4:15 PM 48.2 °F - 42.8 °F 82% 29.72 in 10.0 mi SE 20.7 mph 25.3 mph N/A   Overcast
4:35 PM 48.2 °F - 42.8 °F 82% 29.73 in 10.0 mi SSE 18.4 mph 25.3 mph N/A   Overcast
4:55 PM 48.2 °F - 41.0 °F 76% 29.73 in 10.0 mi SSE 16.1 mph 26.5 mph N/A   Mostly Cloudy
5:15 PM 48.2 °F - 41.0 °F 76% 29.72 in 10.0 mi SSE 18.4 mph 24.2 mph N/A   Overcast
5:35 PM 48.2 °F - 39.2 °F 71% 29.73 in 10.0 mi SSE 16.1 mph 25.3 mph N/A   Overcast
5:55 PM 48.2 °F - 41.0 °F 76% 29.73 in 10.0 mi SSE 17.3 mph - N/A   Overcast
6:15 PM 48.2 °F - 41.0 °F 76% 29.72 in 10.0 mi SSE 19.6 mph 24.2 mph N/A   Overcast
6:35 PM 48.2 °F - 39.2 °F 71% 29.71 in 10.0 mi South 17.3 mph 29.9 mph N/A   Overcast
6:55 PM 48.2 °F - 41.0 °F 76% 29.71 in 10.0 mi SSE 17.3 mph 21.9 mph N/A   Overcast
7:15 PM 46.4 °F 39.5 °F 41.0 °F 81% 29.72 in 10.0 mi South 17.3 mph 24.2 mph N/A   Overcast
7:35 PM 46.4 °F 39.5 °F 42.8 °F 87% 29.70 in 10.0 mi SSE 17.3 mph 21.9 mph N/A   Overcast
7:55 PM 46.4 °F 40.4 °F 41.0 °F 81% 29.70 in 10.0 mi SSE 13.8 mph 19.6 mph N/A   Overcast
8:15 PM 46.4 °F 39.8 °F 39.2 °F 76% 29.70 in 10.0 mi South 16.1 mph 28.8 mph N/A   Overcast
8:35 PM 46.4 °F 39.0 °F 39.2 °F 76% 29.69 in 10.0 mi SSE 19.6 mph 26.5 mph N/A   Overcast
8:55 PM 44.6 °F 37.2 °F 39.2 °F 81% 29.70 in 10.0 mi South 17.3 mph 24.2 mph N/A   Scattered Clouds
9:15 PM 44.6 °F 36.4 °F 39.2 °F 81% 29.72 in 10.0 mi SSE 20.7 mph 24.2 mph N/A   Mostly Cloudy
9:35 PM 44.6 °F 37.2 °F 41.0 °F 87% 29.74 in 10.0 mi SSE 17.3 mph 23.0 mph N/A   Overcast
9:55 PM 46.4 °F 40.1 °F 39.2 °F 76% 29.75 in 10.0 mi South 15.0 mph 20.7 mph N/A   Overcast
10:15 PM 46.4 °F 40.7 °F 39.2 °F 76% 29.76 in 10.0 mi South 12.7 mph - N/A   Overcast
10:35 PM 46.4 °F 40.1 °F 39.2 °F 76% 29.77 in 10.0 mi SSE 15.0 mph - N/A   Overcast
10:55 PM 46.4 °F 40.1 °F 39.2 °F 76% 29.77 in 10.0 mi South 15.0 mph 19.6 mph N/A   Overcast
11:15 PM 46.4 °F 40.4 °F 39.2 °F 76% 29.79 in 10.0 mi South 13.8 mph - N/A   Overcast
11:55 PM 46.4 °F 41.5 °F 39.2 °F 76% 29.80 in 10.0 mi South 10.4 mph - N/A   Overcast